When you browse on this site, cookies collect data to enhance your experience and personalize the content and advertising you see.
Visit our Privacy Policy to learn more. By continuing to use the site, you agree to this use of cookies and data.
  • en Suisse
  • Liste des pays
  • À 7 jours
  • Température de l'eau
  • Carte météo
  • Widgets météo
  • user-avatar
    Se connecter

    Météo par heure à Skadino

    Ce jour, 17 Août, Samedi

    Heure Température Précipitation Vent Pression Humidité
    00:00 +12°C° 0 mm 1 m/s 756 mmHg 81%
    01:00 +11°C° 0 mm 0 m/s 757 mmHg 83%
    02:00 +12°C° 0 mm 1 m/s 757 mmHg 82%
    03:00 +11°C° 0 mm 1 m/s 757 mmHg 83%
    04:00 +11°C° 0 mm 1 m/s 757 mmHg 84%
    05:00 +11°C° 0 mm 1 m/s 757 mmHg 85%
    06:00 +13°C° 0 mm 1 m/s 757 mmHg 79%
    07:00 +15°C° 0 mm 1 m/s 757 mmHg 72%
    08:00 +18°C° 0 mm 1 m/s 757 mmHg 66%
    09:00 +20°C° 0 mm 1 m/s 757 mmHg 60%
    10:00 +21°C° 0 mm 1 m/s 757 mmHg 55%
    11:00 +23°C° 0 mm 1 m/s 757 mmHg 49%
    12:00 +23°C° 0 mm 1 m/s 756 mmHg 47%
    13:00 +24°C° 0 mm 1 m/s 756 mmHg 45%
    14:00 +24°C° 0 mm 1 m/s 756 mmHg 43%
    15:00 +24°C° 0 mm 1 m/s 756 mmHg 46%
    16:00 +23°C° 0 mm 1 m/s 755 mmHg 49%
    17:00 +23°C° 0 mm 1 m/s 755 mmHg 52%
    18:00 +21°C° 0 mm 1 m/s 755 mmHg 59%
    19:00 +19°C° 0 mm 1 m/s 755 mmHg 65%
    20:00 +15°C° 0 mm 1 m/s 755 mmHg 71%
    21:00 +15°C° 0 mm 1 m/s 755 mmHg 75%
    22:00 +14°C° 0 mm 1 m/s 755 mmHg 79%
    23:00 +13°C° 0 mm 1 m/s 755 mmHg 83%

    Demain, 18 Août, Dimanche

    Heure Température Précipitation Vent Pression Humidité
    00:00 +13°C° 0 mm 1 m/s 755 mmHg 85%
    01:00 +12°C° 0 mm 1 m/s 755 mmHg 86%
    02:00 +11°C° 0 mm 0 m/s 755 mmHg 88%
    03:00 +12°C° 0 mm 1 m/s 755 mmHg 89%
    04:00 +11°C° 0 mm 1 m/s 754 mmHg 89%
    05:00 +11°C° 0 mm 1 m/s 754 mmHg 89%
    06:00 +13°C° 0 mm 1 m/s 754 mmHg 82%
    07:00 +15°C° 0 mm 1 m/s 754 mmHg 75%
    08:00 +18°C° 0 mm 1 m/s 754 mmHg 68%
    09:00 +20°C° 0 mm 1 m/s 754 mmHg 63%
    10:00 +20°C° 0 mm 0 m/s 754 mmHg 57%
    11:00 +22°C° 0 mm 0 m/s 754 mmHg 52%
    12:00 +24°C° 0 mm 1 m/s 753 mmHg 50%
    13:00 +24°C° 0 mm 1 m/s 753 mmHg 48%
    14:00 +24°C° 0 mm 1 m/s 753 mmHg 46%
    15:00 +24°C° 0 mm 1 m/s 753 mmHg 49%
    16:00 +24°C° 0 mm 1 m/s 753 mmHg 52%
    17:00 +24°C° 0 mm 1 m/s 753 mmHg 55%
    18:00 +22°C° 0 mm 1 m/s 753 mmHg 61%
    19:00 +20°C° 0 mm 1 m/s 753 mmHg 66%
    20:00 +18°C° 0 mm 1 m/s 753 mmHg 72%
    21:00 +17°C° 0 mm 2 m/s 753 mmHg 75%
    22:00 +16°C° 0 mm 2 m/s 753 mmHg 78%
    23:00 +15°C° 0 mm 2 m/s 753 mmHg 81%

    Après-demain, 19 Août, Lundi

    Heure Température Précipitation Vent Pression Humidité
    00:00 +15°C° 0 mm 2 m/s 753 mmHg 85%
    01:00 +15°C° 0 mm 2 m/s 753 mmHg 88%
    02:00 +14°C° 0 mm 3 m/s 753 mmHg 92%
    03:00 +14°C° 0 mm 3 m/s 752 mmHg 92%
    04:00 +14°C° 0 mm 3 m/s 752 mmHg 91%
    05:00 +16°C° 0 mm 3 m/s 752 mmHg 91%
    06:00 +17°C° 0 mm 4 m/s 752 mmHg 88%
    07:00 +18°C° 0 mm 4 m/s 752 mmHg 84%
    08:00 +19°C° 0 mm 4 m/s 752 mmHg 81%
    09:00 +19°C° 0 mm 4 m/s 753 mmHg 80%
    10:00 +20°C° 0 mm 4 m/s 753 mmHg 79%
    11:00 +21°C° 0 mm 4 m/s 753 mmHg 78%
    12:00 +21°C° 0 mm 4 m/s 753 mmHg 78%
    13:00 +21°C° 0 mm 4 m/s 754 mmHg 78%
    14:00 +22°C° 0 mm 3 m/s 754 mmHg 78%
    15:00 +22°C° 0.1 mm 3 m/s 754 mmHg 79%
    16:00 +24°C° 0.1 mm 3 m/s 754 mmHg 80%
    17:00 +24°C° 0.1 mm 3 m/s 754 mmHg 80%
    18:00 +22°C° 0.3 mm 3 m/s 755 mmHg 85%
    19:00 +21°C° 0.3 mm 2 m/s 755 mmHg 90%
    20:00 +20°C° 0.3 mm 2 m/s 755 mmHg 95%
    21:00 +19°C° 0 mm 2 m/s 755 mmHg 95%
    22:00 +19°C° 0 mm 1 m/s 756 mmHg 95%
    23:00 +18°C° 0 mm 1 m/s 756 mmHg 95%

    20 Août, Mardi

    Heure Température Précipitation Vent Pression Humidité
    00:00 +18°C° 0 mm 1 m/s 757 mmHg 94%
    01:00 +16°C° 0 mm 1 m/s 757 mmHg 94%
    02:00 +15°C° 0 mm 0 m/s 757 mmHg 93%
    03:00 +16°C° 0.1 mm 1 m/s 757 mmHg 94%
    04:00 +16°C° 0.1 mm 1 m/s 757 mmHg 94%
    05:00 +16°C° 0.1 mm 1 m/s 758 mmHg 94%
    06:00 +18°C° 0 mm 1 m/s 758 mmHg 92%
    07:00 +19°C° 0 mm 1 m/s 758 mmHg 89%
    08:00 +20°C° 0 mm 1 m/s 758 mmHg 87%
    09:00 +22°C° 0 mm 1 m/s 758 mmHg 79%
    10:00 +23°C° 0 mm 1 m/s 758 mmHg 71%
    11:00 +25°C° 0 mm 1 m/s 759 mmHg 64%
    12:00 +25°C° 0 mm 1 m/s 758 mmHg 61%
    13:00 +26°C° 0 mm 1 m/s 758 mmHg 57%
    14:00 +26°C° 0 mm 1 m/s 758 mmHg 54%
    15:00 +26°C° 0 mm 1 m/s 758 mmHg 57%
    16:00 +25°C° 0 mm 1 m/s 758 mmHg 60%
    17:00 +25°C° 0 mm 1 m/s 758 mmHg 63%
    18:00 +23°C° 0 mm 1 m/s 758 mmHg 68%
    19:00 +21°C° 0 mm 1 m/s 759 mmHg 73%
    20:00 +19°C° 0 mm 1 m/s 759 mmHg 78%
    21:00 +18°C° 0 mm 1 m/s 759 mmHg 79%
    22:00 +16°C° 0 mm 1 m/s 759 mmHg 80%
    23:00 +16°C° 0 mm 1 m/s 760 mmHg 82%

    21 Août, Mercredi

    Heure Température Précipitation Vent Pression Humidité
    00:00 +15°C° 0 mm 1 m/s 760 mmHg 81%
    01:00 +15°C° 0 mm 1 m/s 760 mmHg 80%
    02:00 +14°C° 0 mm 1 m/s 760 mmHg 80%
    03:00 +14°C° 0 mm 1 m/s 760 mmHg 81%
    04:00 +14°C° 0 mm 1 m/s 760 mmHg 82%
    05:00 +13°C° 0 mm 1 m/s 760 mmHg 84%
    06:00 +15°C° 0 mm 1 m/s 760 mmHg 80%
    07:00 +18°C° 0 mm 1 m/s 760 mmHg 77%
    08:00 +19°C° 0 mm 1 m/s 760 mmHg 74%
    09:00 +19°C° 0 mm 2 m/s 759 mmHg 74%
    10:00 +20°C° 0 mm 2 m/s 759 mmHg 75%
    11:00 +20°C° 0 mm 2 m/s 758 mmHg 75%
    12:00 +19°C° 0.7 mm 3 m/s 758 mmHg 81%
    13:00 +19°C° 0.7 mm 4 m/s 757 mmHg 87%
    14:00 +18°C° 0.7 mm 4 m/s 756 mmHg 93%
    15:00 +17°C° 3.2 mm 4 m/s 756 mmHg 94%
    16:00 +16°C° 3.2 mm 5 m/s 755 mmHg 95%
    17:00 +15°C° 3.2 mm 5 m/s 755 mmHg 96%
    18:00 +14°C° 1.2 mm 5 m/s 755 mmHg 96%
    19:00 +14°C° 1.2 mm 5 m/s 755 mmHg 96%
    20:00 +13°C° 1.2 mm 6 m/s 755 mmHg 96%
    21:00 +13°C° 1 mm 5 m/s 755 mmHg 96%
    22:00 +13°C° 1 mm 5 m/s 756 mmHg 96%
    23:00 +13°C° 1 mm 4 m/s 756 mmHg 97%

    22 Août, Jeudi

    Heure Température Précipitation Vent Pression Humidité
    00:00 +13°C° 0 mm 4 m/s 757 mmHg 96%
    01:00 +13°C° 0 mm 4 m/s 758 mmHg 96%
    02:00 +13°C° 0 mm 4 m/s 758 mmHg 96%
    03:00 +12°C° 0 mm 3 m/s 758 mmHg 96%
    04:00 +11°C° 0 mm 3 m/s 759 mmHg 97%
    05:00 +12°C° 0 mm 2 m/s 759 mmHg 97%
    06:00 +13°C° 0 mm 2 m/s 759 mmHg 95%
    07:00 +14°C° 0 mm 2 m/s 760 mmHg 93%
    08:00 +14°C° 0 mm 3 m/s 760 mmHg 91%
    09:00 +16°C° 0 mm 3 m/s 760 mmHg 81%
    10:00 +18°C° 0 mm 3 m/s 760 mmHg 72%
    11:00 +20°C° 0 mm 4 m/s 760 mmHg 63%
    12:00 +20°C° 0 mm 4 m/s 760 mmHg 60%
    13:00 +21°C° 0 mm 4 m/s 760 mmHg 56%
    14:00 +22°C° 0 mm 4 m/s 761 mmHg 53%
    15:00 +21°C° 0 mm 4 m/s 761 mmHg 57%
    16:00 +21°C° 0 mm 3 m/s 761 mmHg 60%
    17:00 +20°C° 0 mm 3 m/s 761 mmHg 64%
    18:00 +18°C° 0 mm 2 m/s 761 mmHg 68%
    19:00 +16°C° 0 mm 2 m/s 761 mmHg 73%
    20:00 +14°C° 0 mm 2 m/s 761 mmHg 78%
    21:00 +14°C° 0 mm 2 m/s 761 mmHg 81%
    22:00 +13°C° 0 mm 2 m/s 762 mmHg 83%
    23:00 +12°C° 0 mm 2 m/s 762 mmHg 86%
    Voir plus